User: anonymous   Login
Location: Unspecified
(0.0000°N, 0.0000°E)
Time: 06:48:27
(UTC+00:00)
Language:

STARLINK-31969 - Orbit

View from above orbital plane
View from above orbital plane
View from above satellite
View from above satellite

Ground track
Ground track

The orbit is defined by the following mean orbital elements,

1 59889U          26145.42995190 +.00000000 +00000-0 +19144-4 0 00002
2 59889  43.0022  48.5266 0001439 281.3237  78.7453 15.27583955    00
Epoch (UTC): 25 May 2026 10:19:07
Eccentricity: 0.0001439
inclination: 43.0022°
perigee height: 482 km
apogee height: 484 km
right ascension of ascending node: 48.5266°
argument of perigee: 281.3237°
revolutions per day: 15.27583955
mean anomaly at epoch: 78.7453°

The dashed part of the orbit path shows where the satellite is in the earth's shadow,  

DLR